Princeton, MN

2:33 AM CST on December 10, 2019 (GMT -0600)
Princeton Municipal

Weather History for KPNM - May, 2019

Change the Weather History Date:

Thursday, May 2, 2019

  Actual Average Record
Temperature  
Mean Temperature 44 °F -  
Max Temperature 53 °F 63 °F 80 °F (2015)
Min Temperature 35 °F 39 °F 28 °F (2002)
Degree Days  
Heating Degree Days 21    
Moisture  
Dew Point 37 °F    
Average Humidity 75    
Maximum Humidity 100    
Minimum Humidity 44    
Precipitation  
Precipitation 0.00 in - - ()
Sea Level Pressure  
Sea Level Pressure 30.12 in    
Wind  
Wind Speed 2 mph (West)    
Max Wind Speed 10 mph    
Max Gust Speed 16 mph    
Visibility 8 miles    
Events Fog    
Averages and records for this station are not official NWS values.
T = Trace of Precipitation, MM = Missing Value Source: NWS Daily Summary

Daily Weather History Graph

Daily Weather History Graph

Search for Another Location

Airport or City:

Astronomy

May. 02, 2019 Rise Set
Actual Time 6:01 AM CDT 8:22 PM CDT
Civil Twilight 5:28 AM CDT 8:55 PM CDT
Nautical Twilight 4:47 AM CDT 9:36 PM CDT
Astronomical Twilight 4:01 AM CDT 10:23 PM CDT
Moon 5:26 AM CDT (5/2) 5:59 PM CDT (5/2)
Length of Visible Light 15h 27m
Length of Day
14h 21m
Waning Crescent, 5% of the Moon is Illuminated
May 2
Waning Crescent
May 4
New
May 11
First Quarter
May 18
Full
May 26
Last Quarter

Hourly Weather History & Observations

Time (CDT) Temp. Windchill Dew Point Humidity Pressure Visibility Wind Dir Wind Speed Gust Speed Precip Events Conditions
12:15 AM 39.2 °F - 37.4 °F 93% 30.10 in 10.0 mi Calm Calm - N/A   Overcast
12:35 AM 39.2 °F 37.0 °F 37.4 °F 93% 30.10 in 7.0 mi NNE 3.5 mph - N/A   Overcast
12:55 AM 39.2 °F - 37.4 °F 93% 30.10 in 7.0 mi Calm Calm - N/A   Overcast
12:56 AM 39.2 °F - 37.4 °F 93% 30.10 in 7.0 mi Calm Calm - N/A   Overcast
1:15 AM 39.2 °F - 37.4 °F 93% 30.10 in 7.0 mi Calm Calm - N/A   Overcast
1:35 AM 39.2 °F - 37.4 °F 93% 30.11 in 7.0 mi Calm Calm - N/A   Overcast
1:36 AM 39.2 °F - 37.4 °F 93% 30.11 in 7.0 mi Calm Calm - N/A   Overcast
1:55 AM 39.2 °F - 37.4 °F 93% 30.12 in 7.0 mi Calm Calm - N/A   Overcast
2:15 AM 39.2 °F - 37.4 °F 93% 30.09 in 5.0 mi Calm Calm - N/A   Overcast
2:35 AM 39.2 °F - 37.4 °F 93% 30.10 in 4.0 mi Calm Calm - N/A   Overcast
2:36 AM 39.2 °F - 37.4 °F 93% 30.10 in 4.0 mi Calm Calm - N/A   Overcast
2:55 AM 39.2 °F - 37.4 °F 93% 30.10 in 4.0 mi Calm Calm - N/A   Overcast
2:56 AM 39.2 °F - 37.4 °F 93% 30.10 in 4.0 mi Calm Calm - N/A   Overcast
3:15 AM 39.2 °F - 37.4 °F 93% 30.10 in 4.0 mi Calm Calm - N/A   Overcast
3:35 AM 39.2 °F - 37.4 °F 93% 30.10 in 2.5 mi Calm Calm - N/A   Overcast
3:55 AM 39.2 °F - 37.4 °F 93% 30.10 in 2.0 mi Calm Calm - N/A   Overcast
4:15 AM 39.2 °F - 37.4 °F 93% 30.10 in 1.2 mi Calm Calm - N/A   Overcast
4:16 AM 39.2 °F - 37.4 °F 93% 30.10 in 1.2 mi Calm Calm - N/A   Overcast
4:35 AM 39.2 °F - 37.4 °F 93% 30.10 in 0.8 mi Calm Calm - N/A   Overcast
4:36 AM 39.2 °F - 37.4 °F 93% 30.10 in 0.8 mi Calm Calm - N/A   Overcast
4:55 AM 39.2 °F - 37.4 °F 93% 30.10 in 0.8 mi Calm Calm - N/A   Overcast
5:16 AM 39.2 °F - 37.4 °F 93% 30.10 in 0.8 mi Calm Calm - N/A   Overcast
5:35 AM 39.2 °F - 37.4 °F 93% 30.10 in 0.8 mi Calm Calm - N/A   Overcast
5:36 AM 39.2 °F - 37.4 °F 93% 30.10 in 0.8 mi Calm Calm - N/A   Overcast
5:55 AM 39.2 °F - 37.4 °F 93% 30.10 in 0.5 mi Calm Calm - N/A Fog Fog
6:15 AM 39.2 °F - 37.4 °F 93% 30.10 in 0.5 mi Calm Calm - N/A Fog Fog
6:16 AM 39.2 °F - 37.4 °F 93% 30.10 in 0.5 mi Calm Calm - N/A Fog Fog
6:35 AM 39.2 °F - 37.4 °F 93% 30.10 in 0.2 mi Calm Calm - N/A Fog Fog
6:36 AM 39.2 °F - 37.4 °F 93% 30.10 in 0.2 mi Calm Calm - N/A Fog Fog
6:55 AM 39.2 °F - 37.4 °F 93% 30.11 in 0.2 mi Calm Calm - N/A Fog Fog
7:15 AM 39.2 °F - 39.2 °F 100% 30.11 in 0.5 mi Calm Calm - N/A Fog Fog
7:35 AM 41.0 °F - 39.2 °F 93% 30.12 in 1.2 mi Calm Calm - N/A   Overcast
7:36 AM 41.0 °F - 39.2 °F 93% 30.12 in 1.0 mi Calm Calm - N/A   Overcast
7:55 AM 41.0 °F - 39.2 °F 93% 30.12 in 2.5 mi Calm Calm - N/A   Overcast
8:15 AM 42.8 °F - 41.0 °F 93% 30.12 in 3.0 mi Calm Calm - N/A   Overcast
8:35 AM 42.8 °F - 41.0 °F 93% 30.13 in 5.0 mi Calm Calm - N/A   Overcast
8:36 AM 42.8 °F - 41.0 °F 93% 30.13 in 5.0 mi Calm Calm - N/A   Overcast
8:55 AM 42.8 °F 39.3 °F 42.8 °F 100% 30.13 in 7.0 mi West 5.8 mph - N/A   Overcast
9:15 AM 44.6 °F - 42.8 °F 93% 30.12 in 10.0 mi Calm Calm - N/A   Overcast
9:16 AM 44.6 °F 42.2 °F 42.8 °F 93% 30.12 in 10.0 mi WSW 4.6 mph - N/A   Overcast
9:35 AM 46.4 °F 41.9 °F 44.6 °F 93% 30.12 in 10.0 mi West 9.2 mph - N/A   Mostly Cloudy
9:36 AM 46.4 °F 41.9 °F 44.6 °F 93% 30.12 in 10.0 mi West 9.2 mph - N/A   Overcast
9:55 AM 46.4 °F 44.3 °F 39.2 °F 76% 30.13 in 10.0 mi NW 4.6 mph - N/A   Mostly Cloudy
10:15 AM 46.4 °F 43.5 °F 39.2 °F 76% 30.13 in 10.0 mi WNW 5.8 mph - N/A   Overcast
10:16 AM 46.4 °F 43.5 °F 39.2 °F 76% 30.13 in 10.0 mi WNW 5.8 mph - N/A   Overcast
10:35 AM 46.4 °F 43.5 °F 39.2 °F 76% 30.14 in 10.0 mi West 5.8 mph - N/A   Overcast
10:36 AM 46.4 °F 42.9 °F 39.2 °F 76% 30.14 in 10.0 mi WSW 6.9 mph - N/A   Overcast
10:55 AM 46.4 °F 42.9 °F 39.2 °F 76% 30.14 in 10.0 mi West 6.9 mph - N/A   Overcast
11:15 AM 48.2 °F - 37.4 °F 66% 30.14 in 10.0 mi West 10.4 mph - N/A   Overcast
11:35 AM 48.2 °F - 37.4 °F 66% 30.15 in 10.0 mi West 9.2 mph - N/A   Overcast
11:55 AM 48.2 °F - 37.4 °F 66% 30.15 in 10.0 mi West 10.4 mph - N/A   Overcast
11:56 AM 48.2 °F - 37.4 °F 66% 30.15 in 10.0 mi West 9.2 mph - N/A   Overcast
12:15 PM 48.2 °F - 37.4 °F 66% 30.15 in 10.0 mi WSW 9.2 mph - N/A   Overcast
12:16 PM 48.2 °F - 37.4 °F 66% 30.14 in 10.0 mi WSW 8.1 mph - N/A   Overcast
12:35 PM 50.0 °F - 37.4 °F 62% 30.14 in 10.0 mi West 9.2 mph - N/A   Overcast
12:55 PM 48.2 °F - 37.4 °F 66% 30.14 in 10.0 mi WNW 4.6 mph - N/A   Overcast
12:56 PM 48.2 °F - 37.4 °F 66% 30.14 in 10.0 mi West 6.9 mph - N/A   Overcast
1:15 PM 50.0 °F - 37.4 °F 62% 30.14 in 10.0 mi West 8.1 mph - N/A   Overcast
1:16 PM 50.0 °F - 37.4 °F 62% 30.14 in 10.0 mi West 6.9 mph - N/A   Overcast
1:35 PM 51.8 °F - 37.4 °F 58% 30.14 in 10.0 mi West 6.9 mph - N/A   Overcast
1:55 PM 51.8 °F - 39.2 °F 62% 30.14 in 10.0 mi WNW 4.6 mph - N/A   Overcast
1:56 PM 51.8 °F - 39.2 °F 62% 30.14 in 10.0 mi WNW 5.8 mph - N/A   Overcast
2:15 PM 51.8 °F - 37.4 °F 58% 30.14 in 10.0 mi West 6.9 mph - N/A   Overcast
2:35 PM 51.8 °F - 35.6 °F 54% 30.14 in 10.0 mi WSW 6.9 mph - N/A   Overcast
2:36 PM 51.8 °F - 35.6 °F 54% 30.14 in 10.0 mi WSW 5.8 mph - N/A   Overcast
2:55 PM 51.8 °F - 37.4 °F 58% 30.14 in 10.0 mi West 6.9 mph - N/A   Overcast
2:56 PM 51.8 °F - 37.4 °F 58% 30.14 in 10.0 mi West 9.2 mph - N/A   Overcast
3:15 PM 53.6 °F - 37.4 °F 54% 30.13 in 10.0 mi WNW 8.1 mph - N/A   Overcast
3:35 PM 53.6 °F - 35.6 °F 51% 30.13 in 10.0 mi West 9.2 mph - N/A   Overcast
3:36 PM 53.6 °F - 35.6 °F 51% 30.13 in 10.0 mi West 10.4 mph - N/A   Overcast
3:55 PM 53.6 °F - 35.6 °F 51% 30.13 in 10.0 mi WNW 8.1 mph - N/A   Mostly Cloudy
3:56 PM 53.6 °F - 35.6 °F 51% 30.12 in 10.0 mi WNW 8.1 mph - N/A   Mostly Cloudy
4:15 PM 53.6 °F - 35.6 °F 51% 30.12 in 10.0 mi West 8.1 mph 16.1 mph N/A   Mostly Cloudy
4:35 PM 53.6 °F - 35.6 °F 51% 30.12 in 10.0 mi WNW 8.1 mph - N/A   Overcast
4:36 PM 53.6 °F - 35.6 °F 51% 30.12 in 10.0 mi NW 8.1 mph - N/A   Overcast
4:55 PM 53.6 °F - 35.6 °F 51% 30.11 in 10.0 mi West 9.2 mph - N/A   Overcast
5:15 PM 53.6 °F - 35.6 °F 51% 30.11 in 10.0 mi West 8.1 mph - N/A   Mostly Cloudy
5:36 PM 51.8 °F - 33.8 °F 50% 30.11 in 10.0 mi NW 6.9 mph - N/A   Mostly Cloudy
5:55 PM 53.6 °F - 33.8 °F 47% 30.11 in 10.0 mi West 8.1 mph - N/A   Mostly Cloudy
6:15 PM 53.6 °F - 32.0 °F 44% 30.11 in 10.0 mi West 5.8 mph - N/A   Scattered Clouds
6:35 PM 50.0 °F - 33.8 °F 54% 30.11 in 10.0 mi NW 3.5 mph - N/A   Clear
6:36 PM 50.0 °F - 33.8 °F 54% 30.11 in 10.0 mi NW 3.5 mph - N/A   Clear
6:55 PM 50.0 °F - 33.8 °F 54% 30.11 in 10.0 mi Calm Calm - N/A   Scattered Clouds
7:16 PM 50.0 °F - 32.0 °F 50% 30.11 in 10.0 mi Calm Calm - N/A   Mostly Cloudy
7:35 PM 50.0 °F - 32.0 °F 50% 30.12 in 10.0 mi Calm Calm - N/A   Overcast
7:36 PM 50.0 °F - 32.0 °F 50% 30.12 in 10.0 mi Calm Calm - N/A   Overcast
7:55 PM 50.0 °F - 33.8 °F 54% 30.12 in 10.0 mi Calm Calm - N/A   Overcast
8:15 PM 48.2 °F - 35.6 °F 62% 30.12 in 10.0 mi Calm Calm - N/A   Overcast
8:16 PM 48.2 °F - 37.4 °F 66% 30.12 in 10.0 mi Calm Calm - N/A   Overcast
8:35 PM 48.2 °F - 33.8 °F 58% 30.12 in 10.0 mi Calm Calm - N/A   Overcast
8:36 PM 48.2 °F - 33.8 °F 58% 30.12 in 10.0 mi Calm Calm - N/A   Overcast
8:55 PM 48.2 °F - 30.2 °F 50% 30.12 in 10.0 mi Calm Calm - N/A   Overcast
9:15 PM 46.4 °F - 35.6 °F 66% 30.13 in 10.0 mi Calm Calm - N/A   Overcast
9:16 PM 46.4 °F - 33.8 °F 62% 30.13 in 10.0 mi Calm Calm - N/A   Overcast
9:35 PM 46.4 °F - 33.8 °F 62% 30.13 in 10.0 mi Calm Calm - N/A   Mostly Cloudy
9:55 PM 44.6 °F - 33.8 °F 66% 30.14 in 10.0 mi Calm Calm - N/A   Scattered Clouds
10:15 PM 41.0 °F - 33.8 °F 76% 30.13 in 10.0 mi Calm Calm - N/A   Scattered Clouds
10:16 PM 41.0 °F - 33.8 °F 76% 30.13 in 10.0 mi Calm Calm - N/A   Scattered Clouds
10:35 PM 39.2 °F - 33.8 °F 81% 30.14 in 10.0 mi Calm Calm - N/A   Clear
10:55 PM 37.4 °F - 33.8 °F 87% 30.13 in 10.0 mi Calm Calm - N/A   Clear
11:15 PM 35.6 °F - 30.2 °F 81% 30.14 in 10.0 mi Calm Calm - N/A   Clear
11:16 PM 35.6 °F - 30.2 °F 81% 30.14 in 10.0 mi Calm Calm - N/A   Clear
11:35 PM 35.6 °F - 30.2 °F 81% 30.14 in 10.0 mi Calm Calm - N/A   Clear
11:55 PM 35.6 °F - 33.8 °F 93% 30.14 in 10.0 mi Calm Calm - N/A   Clear